Tracking 19832 objects as of 26-Aug-2019
HD Live streaming from Space Station
objects crossing your sky now

COSMOS 2251 DEB

Track COSMOS 2251 DEB now!
10-day predictions


NORAD ID: 35960
Int'l Code: 1993-036AVA
Perigee: 542.6 km
Apogee: 630.3 km
Inclination: 74.0 °
Period: 96.3 minutes
Semi major axis: 6957 km
RCS: 0.0013 m2 (small)
Launch date: June 16, 1993
Source: Commonwealth of Independent States (former USSR) (CIS)
Launch site: PLESETSK MISSILE AND SPACE COMPLEX (PKMTR)

Note: This is SATELLITE DEBRIS
aabbcc
Your satellite tracking list
Your tracking list is empty




NASA's NSSDC Master Catalog

Two Line Element Set (TLE):
1 35960U 93036AVA 19237.82166228  .00001431  00000-0  12632-3 0  9997
2 35960  74.0098  56.7390 0063040  14.5878 345.7106 14.95994802550220
Source of the keplerian elements: AFSPC